Location: Fosso Corella
(43.9167°N, 11.5667°E)
Time: 18:25:45
(UTC+00:00)

STARLINK-24 - Pass Details

Date: 07 June 2020
Orbit: 526 x 527 km, 53.0° (Epoch: 04 July)

Event Time Altitude Azimuth Distance (km) Brightness Sun altitude
Exits shadow 01:28:33 28° 176° (S) 1,006 4.5 -16.4°
Maximum altitude 01:29:52 36° 136° (SE) 843 4.4 -16.3°
Drops below altitude 10° 01:33:33 10° 69° (ENE) 1,770 7.0 -15.9°
Sets 01:35:53 0° 61° (ENE) 2,663 8.3 -15.7°
